User: anonymous   Login
Location: Holcomb Observatory
(44.4922°N, 73.1654°W)
Time: 20:50:24
(UTC-04:00)
Language:

Cosmos 1727 Rocket - Orbit

View from above orbital plane
View from above orbital plane
View from above satellite
View from above satellite

Ground track
Ground track

The orbit data is extracted from the following two-line orbital elements,

1 16511U 86008B   17295.58486522 +.00000051 +00000-0 +37130-4 0  9994
2 16511 082.9413 125.4548 0022991 287.9049 134.9476 13.75818790593532
Epoch (UTC): 22 October 2017 14:02:12
Eccentricity: 0.0022991
inclination: 82.9413°
perigee height: 962 km
apogee height: 995 km
right ascension of ascending node: 125.4548°
argument of perigee: 287.9049°
revolutions per day: 13.75818790
mean anomaly at epoch: 134.9476°
orbit number at epoch: 59353

The dashed part of the orbit path shows where the satellite is in the earth's shadow,  

DLR